Location: Hilton Head Island
(32.2163°N, 80.7526°W)
Time: 03:13:56
(UTC-05:00)

Explorer 7 - All Passes

Search period start: 16 February 2026 00:00
Search period end: 26 February 2026 00:00
Orbit: 431 x 545 km, 50.2° (Epoch: 15 February)

Date Brightness Start Highest point End Pass type
(mag) Time Alt. Az. Time Alt. Az. Time Alt. Az.
16 Feb - 00:04:47 10° W 00:07:45 20° SW 00:10:46 10° S night (unlit)
16 Feb - 13:45:11 10° SSE 13:47:03 14° SE 13:48:56 10° E daylight
16 Feb - 15:21:46 10° WSW 15:25:07 45° NW 15:28:36 10° NE daylight
16 Feb - 22:00:07 10° NW 22:03:52 42° NE 22:07:44 10° ESE night (unlit)
16 Feb - 23:39:06 10° W 23:42:08 21° SW 23:45:14 10° S night (unlit)
17 Feb - 13:19:47 10° SSE 13:21:27 13° SE 13:23:09 10° E daylight
17 Feb - 14:56:08 10° WSW 14:59:29 47° NW 15:02:58 10° NE daylight
17 Feb - 21:34:30 10° NNW 21:38:13 39° NE 21:42:01 10° ESE night (unlit)
17 Feb - 23:13:23 10° WNW 23:16:30 22° SW 23:19:40 10° S night (unlit)
18 Feb - 12:54:23 10° SSE 12:55:49 12° SE 12:57:17 10° ESE daylight
18 Feb - 14:30:28 10° WSW 14:33:50 50° NW 14:37:19 10° NE daylight
18 Feb - 21:08:52 10° NNW 21:12:31 37° NE 21:16:17 10° ESE visible
18 Feb - 22:47:40 10° WNW 22:50:50 23° SW 22:54:04 10° S night (unlit)
19 Feb - 12:29:00 10° SSE 12:30:10 11° SE 12:31:20 10° ESE daylight
19 Feb - 14:04:47 10° WSW 14:08:09 53° NW 14:11:38 10° NE daylight
19 Feb - 20:43:13 10° NNW 20:46:49 36° NE 20:50:30 10° ESE visible
19 Feb - 22:21:54 10° WNW 22:25:08 24° SW 22:28:25 10° S night (unlit)
20 Feb - 12:03:42 10° SE 12:04:29 11° SE 12:05:15 10° ESE daylight
20 Feb - 13:39:04 10° WSW 13:42:27 56° NW 13:45:55 10° NE daylight
20 Feb - 20:17:32 10° NNW 20:21:04 34° NE 20:24:41 10° ESE visible
20 Feb - 21:56:08 10° WNW 21:59:24 25° SW 22:02:44 10° S night (unlit)
21 Feb - 13:13:19 10° WSW 13:16:42 60° NW 13:20:11 10° NE daylight
21 Feb - 19:51:49 10° NNW 19:55:17 32° NE 19:58:51 10° ESE visible
21 Feb - 21:30:19 10° WNW 21:33:38 26° SW 21:37:02 10° S visible
22 Feb - 12:47:33 10° SW 12:50:57 64° NW 12:54:24 10° NE daylight
22 Feb - 14:29:24 10° NNW 14:29:56 10° NNW 14:30:28 10° NNW daylight
22 Feb - 19:26:05 10° NNW 19:29:28 30° NE 19:32:59 10° E visible
22 Feb - 21:04:30 10° WNW 21:07:51 28° SW 21:11:17 10° S visible
23 Feb - 12:21:45 10° SW 12:25:08 69° NW 12:28:37 10° NE daylight
23 Feb - 14:03:19 10° NW 14:04:06 11° NNW 14:04:53 10° NNW daylight
23 Feb - 19:00:20 10° NNW 19:03:39 29° NE 19:07:04 10° E visible
23 Feb - 20:38:39 10° WNW 20:42:02 29° SW 20:45:30 10° SSE visible
24 Feb - 11:55:55 10° SW 11:59:19 74° NW 12:02:47 10° NE daylight
24 Feb - 13:37:16 10° NW 13:38:14 11° NNW 13:39:13 10° N daylight
24 Feb - 18:34:32 10° NNW 18:37:47 27° NE 18:41:08 10° E visible
24 Feb - 20:12:47 10° WNW 20:16:11 31° SW 20:19:41 10° SSE visible
25 Feb - 11:30:04 10° SW 11:33:28 79° NW 11:36:55 10° NE daylight
25 Feb - 13:11:13 10° NW 13:12:20 11° NNW 13:13:29 10° N daylight
25 Feb - 18:08:43 10° NNW 18:11:53 26° NE 18:15:09 10° E daylight
25 Feb - 19:46:52 10° WNW 19:50:19 33° SW 19:53:51 10° SSE visible
